Location: Ferintosh
(52.7647°N, 112.9692°W)
Time: 07:37:48
(UTC+00:00)

A-11 Canister half - Pass Details

Date: 21 May 2024
Orbit: 1514 x 1685 km, 47.2° (Epoch: 22 June)

Event Time Altitude Azimuth Distance (km) Brightness Sun altitude
Rises 17:38:14 0° 283° (WNW) 4,663 11.2 51.3°
Reaches altitude 10° 17:43:15 10° 260° (W) 3,676 10.9 51.8°
Maximum altitude 17:47:22 14° 233° (SW) 3,377 11.0 52.2°
Drops below altitude 10° 17:51:31 10° 206° (SSW) 3,690 11.4 52.6°
Sets 17:56:37 0° 183° (S) 4,693 11.9 53.1°
